Regional Weather Roundup
Issued by NWS

Home | Current Version | Previous Version | Text Only | Print | Product List | Glossary Off
Versions: 1 2 3 4 5 6 7 8 9 10 11 12 13 14 15 16 17 18 19 20 21 22 23 24 25 26 27 28 29 30 31 32 33 34 35 36 37 38 39 40 41 42 43 44 45 46 47 48 49 50

569
ASUS43 KBIS 142002
RWRND

NORTH DAKOTA REGIONAL WEATHER ROUNDUP
NATIONAL WEATHER SERVICE BISMARCK ND
200 PM CST SUN FEB 14 2016

NOTE: "FAIR" INDICATES FEW OR NO CLOUDS BELOW 12,000 FEET WITH NO
SIGNIFICANT WEATHER AND/OR OBSTRUCTIONS TO VISIBILITY.


NDZ001>003-009>011-017-142100-
NORTHWEST NORTH DAKOTA

CITY           SKY/WX    TMP DP  RH WIND       PRES   REMARKS
WILLISTON      CLOUDY    35  27  72 SW9       29.70F
MINOT          CLOUDY    36  26  67 W9        29.69R
$$

NDZ018>021-031>035-040>046-142100-
SOUTHWEST NORTH DAKOTA

CITY           SKY/WX    TMP DP  RH WIND       PRES   REMARKS
BISMARCK       CLOUDY    42  30  62 W14       29.72S
DICKINSON      CLOUDY    37  29  72 W14       29.69S
GARRISON         N/A     35  28  75 NW16      29.69S
HETTINGER ARPT CLOUDY    40  32  73 W18       29.73F
$$

NDZ004>008-012>016-024-026-027-054-142100-
NORTHEAST NORTH DAKOTA

CITY           SKY/WX    TMP DP  RH WIND       PRES   REMARKS
GRAND FORKS    LGT SNOW  18  13  80 S15       29.74F WCI   4
GRND FRKS AFB  CLOUDY    18  13  82 S10       29.72F WCI   6
DEVILS LAKE    CLOUDY    22  18  85 W10       29.68S WCI  11
$$

NDZ022-023-025-028>030-036>039-047>053-142100-
SOUTHEAST NORTH DAKOTA

CITY           SKY/WX    TMP DP  RH WIND       PRES   REMARKS
FARGO          CLOUDY    18  13  80 S17       29.78F HAZE    WCI   3
JAMESTOWN      CLOUDY    28  23  81 NW9       29.69S WCI  19
$$





USA.gov is the U.S. government's official web portal to all federal, state and local government web resources and services.